Time,TemperatureF,DewpointF,PressureIn,WindDirection,WindDirectionDegrees,WindSpeedMPH,WindSpeedGustMPH,Humidity,HourlyPrecipIn,Conditions,Clouds,dailyrainin,SoftwareType,DateUTC
2013-02-20 00:05:00,25.0,-99.9,29.94,ESE,105,0.0,1.0,0,-99.99,,,-99.99,,2013-02-20 08:05:00,
2013-02-20 00:11:00,25.0,-99.9,29.95,ESE,105,0.0,0.0,0,-99.99,,,-99.99,,2013-02-20 08:11:00,
2013-02-20 00:22:00,25.0,-99.9,29.95,ESE,105,0.0,0.0,0,-99.99,,,-99.99,,2013-02-20 08:22:00,
2013-02-20 00:32:00,25.0,-99.9,29.95,ESE,105,0.0,0.0,0,-99.99,,,-99.99,,2013-02-20 08:32:00,
2013-02-20 00:42:00,25.0,-99.9,29.95,ESE,105,0.0,0.0,0,-99.99,,,-99.99,,2013-02-20 08:42:00,
2013-02-20 00:52:00,25.0,-99.9,29.95,East,100,0.0,1.0,0,-99.99,,,-99.99,,2013-02-20 08:52:00,
2013-02-20 01:02:00,25.0,-99.9,29.96,East,85,0.0,0.0,0,-99.99,,,-99.99,,2013-02-20 09:02:00,
2013-02-20 01:11:00,25.0,-99.9,29.97,NNE,15,0.0,2.0,0,-99.99,,,-99.99,,2013-02-20 09:11:00,
2013-02-20 01:22:00,25.0,-99.9,29.97,NNE,15,0.0,2.0,0,-99.99,,,-99.99,,2013-02-20 09:22:00,
2013-02-20 01:32:00,26.0,-99.9,29.97,NNE,20,3.0,5.0,0,-99.99,,,-99.99,,2013-02-20 09:32:00,
2013-02-20 01:42:00,26.0,-99.9,29.97,NNE,20,3.0,5.0,0,-99.99,,,-99.99,,2013-02-20 09:42:00,
2013-02-20 01:52:00,26.0,-99.9,29.97,North,360,1.0,5.0,0,-99.99,,,-99.99,,2013-02-20 09:52:00,
2013-02-20 02:01:00,27.0,-99.9,29.98,North,350,0.0,3.0,0,-99.99,,,-99.99,,2013-02-20 10:01:00,
2013-02-20 02:12:00,27.0,-99.9,29.98,NNW,345,0.0,3.0,0,-99.99,,,-99.99,,2013-02-20 10:12:00,
2013-02-20 02:22:00,27.0,-99.9,29.98,NNW,345,0.0,3.0,0,-99.99,,,-99.99,,2013-02-20 10:22:00,
2013-02-20 02:32:00,27.0,-99.9,29.98,NNW,345,0.0,3.0,0,-99.99,,,-99.99,,2013-02-20 10:32:00,
2013-02-20 02:42:00,27.0,-99.9,29.98,NNW,345,0.0,3.0,0,-99.99,,,-99.99,,2013-02-20 10:42:00,
2013-02-20 02:52:00,27.0,-99.9,29.98,NNW,345,2.0,3.0,0,-99.99,,,-99.99,,2013-02-20 10:52:00,
2013-02-20 03:02:00,27.0,-99.9,29.98,NNW,345,2.0,3.0,0,-99.99,,,-99.99,,2013-02-20 11:02:00,
2013-02-20 03:11:00,27.0,-99.9,29.98,NNE,15,2.0,3.0,0,-99.99,,,-99.99,,2013-02-20 11:11:00,
2013-02-20 03:22:00,27.0,-99.9,29.98,NNE,15,2.0,3.0,0,-99.99,,,-99.99,,2013-02-20 11:22:00,
2013-02-20 03:32:00,26.0,-99.9,29.98,North,10,0.0,2.0,0,-99.99,,,-99.99,,2013-02-20 11:32:00,
2013-02-20 03:42:00,26.0,-99.9,29.98,North,10,0.0,2.0,0,-99.99,,,-99.99,,2013-02-20 11:42:00,
2013-02-20 03:52:00,26.0,-99.9,29.98,North,350,0.0,2.0,0,-99.99,,,-99.99,,2013-02-20 11:52:00,
2013-02-20 04:02:00,26.0,-99.9,29.98,North,350,0.0,2.0,0,-99.99,,,-99.99,,2013-02-20 12:02:00,
2013-02-20 04:12:00,26.0,-99.9,29.99,NNW,340,0.0,2.0,0,-99.99,,,-99.99,,2013-02-20 12:12:00,
2013-02-20 04:22:00,26.0,-99.9,29.99,NNW,340,0.0,2.0,0,-99.99,,,-99.99,,2013-02-20 12:22:00,
2013-02-20 04:32:00,26.0,-99.9,29.99,North,355,0.0,2.0,0,-99.99,,,-99.99,,2013-02-20 12:32:00,
2013-02-20 04:42:00,26.0,-99.9,29.99,North,355,0.0,2.0,0,-99.99,,,-99.99,,2013-02-20 12:42:00,
2013-02-20 04:53:00,25.0,-99.9,29.99,North,355,0.0,0.0,0,-99.99,,,-99.99,,2013-02-20 12:53:00,
2013-02-20 05:02:00,25.0,-99.9,29.99,North,355,0.0,0.0,0,-99.99,,,-99.99,,2013-02-20 13:02:00,
2013-02-20 05:12:00,25.0,-99.9,30.00,North,355,0.0,0.0,0,-99.99,,,-99.99,,2013-02-20 13:12:00,
2013-02-20 05:22:00,25.0,-99.9,30.00,North,355,0.0,0.0,0,-99.99,,,-99.99,,2013-02-20 13:22:00,
2013-02-20 05:32:00,25.0,-99.9,30.00,North,355,0.0,0.0,0,-99.99,,,-99.99,,2013-02-20 13:32:00,
2013-02-20 05:42:00,25.0,-99.9,30.00,North,355,0.0,0.0,0,-99.99,,,-99.99,,2013-02-20 13:42:00,
2013-02-20 05:52:00,25.0,-99.9,30.00,North,355,0.0,0.0,0,-99.99,,,-99.99,,2013-02-20 13:52:00,
2013-02-20 06:01:00,25.0,-99.9,30.00,North,355,0.0,0.0,0,-99.99,,,-99.99,,2013-02-20 14:01:00,
2013-02-20 06:11:00,26.0,-99.9,30.01,North,5,0.0,2.0,0,-99.99,,,-99.99,,2013-02-20 14:11:00,
2013-02-20 06:22:00,26.0,-99.9,30.01,North,5,0.0,2.0,0,-99.99,,,-99.99,,2013-02-20 14:22:00,
2013-02-20 06:32:00,26.0,-99.9,30.02,NNW,345,0.0,1.0,0,-99.99,,,-99.99,,2013-02-20 14:32:00,
2013-02-20 06:42:00,26.0,-99.9,30.02,NNW,345,0.0,0.0,0,-99.99,,,-99.99,,2013-02-20 14:42:00,
2013-02-20 06:52:00,26.0,-99.9,30.02,NNW,345,0.0,0.0,0,-99.99,,,-99.99,,2013-02-20 14:52:00,
2013-02-20 07:02:00,25.0,-99.9,30.03,NNW,345,0.0,0.0,0,-99.99,,,-99.99,,2013-02-20 15:02:00,
2013-02-20 07:12:00,25.0,-99.9,30.03,NNW,345,0.0,1.0,0,-99.99,,,-99.99,,2013-02-20 15:12:00,
2013-02-20 07:22:00,25.0,-99.9,30.03,NNW,345,0.0,1.0,0,-99.99,,,-99.99,,2013-02-20 15:22:00,
2013-02-20 07:32:00,25.0,-99.9,30.03,NNW,345,0.0,1.0,0,-99.99,,,-99.99,,2013-02-20 15:32:00,
2013-02-20 07:42:00,25.0,-99.9,30.03,NNW,345,0.0,1.0,0,-99.99,,,-99.99,,2013-02-20 15:42:00,
2013-02-20 07:52:00,26.0,-99.9,30.03,NNW,345,0.0,0.0,0,-99.99,,,-99.99,,2013-02-20 15:52:00,
2013-02-20 08:01:00,26.0,-99.9,30.04,ENE,65,0.0,1.0,0,-99.99,,,-99.99,,2013-02-20 16:01:00,
2013-02-20 08:12:00,26.0,-99.9,30.04,ENE,65,0.0,0.0,0,-99.99,,,-99.99,,2013-02-20 16:12:00,
2013-02-20 08:22:00,26.0,-99.9,30.04,ENE,65,0.0,0.0,0,-99.99,,,-99.99,,2013-02-20 16:22:00,
2013-02-20 08:32:00,26.0,-99.9,30.04,ENE,65,0.0,1.0,0,-99.99,,,-99.99,,2013-02-20 16:32:00,
2013-02-20 08:42:00,26.0,-99.9,30.04,ENE,65,0.0,1.0,0,-99.99,,,-99.99,,2013-02-20 16:42:00,
2013-02-20 08:52:00,26.0,-99.9,30.04,ENE,65,0.0,1.0,0,-99.99,,,-99.99,,2013-02-20 16:52:00,
2013-02-20 09:01:00,26.0,-99.9,30.04,ENE,65,0.0,1.0,0,-99.99,,,-99.99,,2013-02-20 17:01:00,
2013-02-20 09:12:00,27.0,-99.9,30.04,SSE,150,0.0,1.0,0,-99.99,,,-99.99,,2013-02-20 17:12:00,
2013-02-20 09:21:00,27.0,-99.9,30.04,SSE,150,0.0,1.0,0,-99.99,,,-99.99,,2013-02-20 17:21:00,
2013-02-20 09:32:00,29.0,-99.9,30.04,SSE,150,0.0,1.0,0,-99.99,,,-99.99,,2013-02-20 17:32:00,
2013-02-20 09:42:00,29.0,-99.9,30.04,SSE,150,0.0,1.0,0,-99.99,,,-99.99,,2013-02-20 17:42:00,
2013-02-20 09:52:00,29.0,-99.9,30.04,SSE,150,0.0,1.0,0,-99.99,,,-99.99,,2013-02-20 17:52:00,
2013-02-20 10:02:00,29.0,-99.9,30.04,WNW,295,0.0,1.0,0,-99.99,,,-99.99,,2013-02-20 18:02:00,
2013-02-20 10:11:00,31.0,-99.9,30.05,WSW,255,3.0,3.0,0,-99.99,,,-99.99,,2013-02-20 18:11:00,
2013-02-20 10:22:00,31.0,-99.9,30.05,WSW,255,3.0,3.0,0,-99.99,,,-99.99,,2013-02-20 18:22:00,
2013-02-20 10:32:00,31.0,-99.9,30.05,NW,320,0.0,3.0,0,-99.99,,,-99.99,,2013-02-20 18:32:00,
2013-02-20 10:42:00,31.0,-99.9,30.05,NW,320,0.0,3.0,0,-99.99,,,-99.99,,2013-02-20 18:42:00,
2013-02-20 10:52:00,32.0,-99.9,30.04,NW,305,0.0,3.0,0,-99.99,,,-99.99,,2013-02-20 18:52:00,
2013-02-20 11:02:00,32.0,-99.9,30.04,NW,305,0.0,3.0,0,-99.99,,,-99.99,,2013-02-20 19:02:00,
2013-02-20 11:12:00,32.0,-99.9,30.05,WSW,240,1.0,3.0,0,-99.99,,,-99.99,,2013-02-20 19:12:00,
2013-02-20 11:21:00,32.0,-99.9,30.05,WSW,240,1.0,3.0,0,-99.99,,,-99.99,,2013-02-20 19:21:00,
2013-02-20 11:32:00,33.0,-99.9,30.05,ENE,65,2.0,2.0,0,-99.99,,,-99.99,,2013-02-20 19:32:00,
2013-02-20 11:42:00,33.0,-99.9,30.05,ENE,65,2.0,2.0,0,-99.99,,,-99.99,,2013-02-20 19:42:00,
2013-02-20 11:52:00,33.0,-99.9,30.05,SW,225,0.0,3.0,0,-99.99,,,-99.99,,2013-02-20 19:52:00,
2013-02-20 12:01:00,33.0,-99.9,30.05,SW,225,0.0,3.0,0,-99.99,,,-99.99,,2013-02-20 20:01:00,
2013-02-20 12:11:00,33.0,-99.9,30.03,West,260,0.0,3.0,0,-99.99,,,-99.99,,2013-02-20 20:11:00,
2013-02-20 12:21:00,33.0,-99.9,30.03,West,260,0.0,3.0,0,-99.99,,,-99.99,,2013-02-20 20:21:00,
2013-02-20 12:31:00,35.0,-99.9,30.02,SSE,160,2.0,5.0,0,-99.99,,,-99.99,,2013-02-20 20:31:00,
2013-02-20 12:41:00,35.0,-99.9,30.02,SSE,160,2.0,5.0,0,-99.99,,,-99.99,,2013-02-20 20:41:00,
2013-02-20 12:52:00,34.0,-99.9,30.03,SW,235,0.0,5.0,0,-99.99,,,-99.99,,2013-02-20 20:52:00,
2013-02-20 13:01:00,34.0,-99.9,30.03,SW,235,0.0,5.0,0,-99.99,,,-99.99,,2013-02-20 21:01:00,
2013-02-20 13:11:00,35.0,-99.9,30.02,WSW,240,2.0,5.0,0,-99.99,,,-99.99,,2013-02-20 21:11:00,
2013-02-20 13:21:00,35.0,-99.9,30.02,WSW,240,2.0,5.0,0,-99.99,,,-99.99,,2013-02-20 21:21:00,
2013-02-20 13:32:00,36.0,-99.9,30.02,WNW,295,3.0,10.0,0,-99.99,,,-99.99,,2013-02-20 21:32:00,
2013-02-20 13:42:00,36.0,-99.9,30.02,WNW,295,3.0,10.0,0,-99.99,,,-99.99,,2013-02-20 21:42:00,
2013-02-20 13:52:00,36.0,-99.9,30.02,WNW,295,3.0,10.0,0,-99.99,,,-99.99,,2013-02-20 21:52:00,
2013-02-20 14:02:00,36.0,-99.9,30.02,WNW,295,3.0,10.0,0,-99.99,,,-99.99,,2013-02-20 22:02:00,
2013-02-20 14:11:00,35.0,-99.9,30.01,NW,310,2.0,10.0,0,-99.99,,,-99.99,,2013-02-20 22:11:00,
2013-02-20 14:21:00,35.0,-99.9,30.01,NW,310,2.0,10.0,0,-99.99,,,-99.99,,2013-02-20 22:21:00,
2013-02-20 14:32:00,36.0,-99.9,30.00,WNW,295,6.0,8.0,0,-99.99,,,-99.99,,2013-02-20 22:32:00,
2013-02-20 14:43:00,36.0,-99.9,30.00,WNW,295,6.0,8.0,0,-99.99,,,-99.99,,2013-02-20 22:43:00,
2013-02-20 14:52:00,36.0,-99.9,30.00,WNW,295,6.0,8.0,0,-99.99,,,-99.99,,2013-02-20 22:52:00,
2013-02-20 15:01:00,35.0,-99.9,29.99,WNW,290,2.0,6.0,0,-99.99,,,-99.99,,2013-02-20 23:01:00,
2013-02-20 15:12:00,35.0,-99.9,29.99,WNW,290,2.0,6.0,0,-99.99,,,-99.99,,2013-02-20 23:12:00,
2013-02-20 15:32:00,36.0,-99.9,29.98,West,280,5.0,8.0,0,-99.99,,,-99.99,,2013-02-20 23:32:00,
2013-02-20 15:43:00,36.0,-99.9,29.98,West,280,5.0,8.0,0,-99.99,,,-99.99,,2013-02-20 23:43:00,
2013-02-20 15:53:00,36.0,-99.9,29.99,WNW,295,3.0,10.0,0,-99.99,,,-99.99,,2013-02-20 23:53:00,
2013-02-20 16:03:00,36.0,-99.9,29.99,WNW,295,3.0,10.0,0,-99.99,,,-99.99,,2013-02-21 00:03:00,
2013-02-20 16:11:00,36.0,-99.9,29.99,WNW,295,3.0,10.0,0,-99.99,,,-99.99,,2013-02-21 00:11:00,
2013-02-20 16:32:00,35.0,-99.9,30.00,WNW,290,6.0,12.0,0,-99.99,,,-99.99,,2013-02-21 00:32:00,
2013-02-20 16:42:00,35.0,-99.9,30.00,WNW,290,6.0,12.0,0,-99.99,,,-99.99,,2013-02-21 00:42:00,
2013-02-20 16:52:00,34.0,-99.9,30.00,WNW,295,8.0,13.0,0,-99.99,,,-99.99,,2013-02-21 00:52:00,
2013-02-20 17:01:00,34.0,-99.9,30.00,WNW,295,8.0,13.0,0,-99.99,,,-99.99,,2013-02-21 01:01:00,
2013-02-20 17:12:00,33.0,-99.9,30.01,WNW,300,6.0,13.0,0,-99.99,,,-99.99,,2013-02-21 01:12:00,
2013-02-20 17:22:00,33.0,-99.9,30.01,WNW,300,6.0,13.0,0,-99.99,,,-99.99,,2013-02-21 01:22:00,
2013-02-20 17:32:00,32.0,-99.9,30.00,NW,320,6.0,13.0,0,-99.99,,,-99.99,,2013-02-21 01:32:00,
2013-02-20 17:42:00,32.0,-99.9,30.00,NW,320,6.0,13.0,0,-99.99,,,-99.99,,2013-02-21 01:42:00,
2013-02-20 17:52:00,31.0,-99.9,30.01,West,265,5.0,10.0,0,-99.99,,,-99.99,,2013-02-21 01:52:00,
2013-02-20 18:02:00,31.0,-99.9,30.01,West,265,5.0,10.0,0,-99.99,,,-99.99,,2013-02-21 02:02:00,
2013-02-20 18:11:00,31.0,-99.9,30.01,NW,310,1.0,2.0,0,-99.99,,,-99.99,,2013-02-21 02:11:00,
2013-02-20 18:22:00,31.0,-99.9,30.01,NW,310,1.0,2.0,0,-99.99,,,-99.99,,2013-02-21 02:22:00,
2013-02-20 18:32:00,31.0,-99.9,30.01,NW,305,1.0,2.0,0,-99.99,,,-99.99,,2013-02-21 02:32:00,
2013-02-20 18:42:00,31.0,-99.9,30.01,NW,305,1.0,2.0,0,-99.99,,,-99.99,,2013-02-21 02:42:00,
2013-02-20 18:52:00,31.0,-99.9,30.01,NW,305,1.0,2.0,0,-99.99,,,-99.99,,2013-02-21 02:52:00,
2013-02-20 19:02:00,30.0,-99.9,30.01,NW,305,0.0,1.0,0,-99.99,,,-99.99,,2013-02-21 03:02:00,
2013-02-20 19:12:00,30.0,-99.9,30.02,WNW,285,2.0,3.0,0,-99.99,,,-99.99,,2013-02-21 03:12:00,
2013-02-20 19:22:00,30.0,-99.9,30.02,WNW,285,2.0,3.0,0,-99.99,,,-99.99,,2013-02-21 03:22:00,
2013-02-20 19:32:00,30.0,-99.9,30.02,NNE,15,2.0,5.0,0,-99.99,,,-99.99,,2013-02-21 03:32:00,
2013-02-20 19:42:00,30.0,-99.9,30.02,NNE,15,2.0,5.0,0,-99.99,,,-99.99,,2013-02-21 03:42:00,
2013-02-20 19:52:00,30.0,-99.9,30.03,North,350,0.0,1.0,0,-99.99,,,-99.99,,2013-02-21 03:52:00,
2013-02-20 20:01:00,30.0,-99.9,30.03,North,350,0.0,1.0,0,-99.99,,,-99.99,,2013-02-21 04:01:00,
2013-02-20 20:11:00,29.0,-99.9,30.02,NE,40,0.0,1.0,0,-99.99,,,-99.99,,2013-02-21 04:11:00,
2013-02-20 20:22:00,29.0,-99.9,30.02,NE,40,0.0,1.0,0,-99.99,,,-99.99,,2013-02-21 04:22:00,
2013-02-20 20:32:00,29.0,-99.9,30.03,ENE,70,0.0,1.0,0,-99.99,,,-99.99,,2013-02-21 04:32:00,
2013-02-20 20:42:00,29.0,-99.9,30.03,ENE,70,0.0,1.0,0,-99.99,,,-99.99,,2013-02-21 04:42:00,
2013-02-20 20:52:00,29.0,-99.9,30.04,SE,145,3.0,3.0,0,-99.99,,,-99.99,,2013-02-21 04:52:00,
2013-02-20 21:03:00,29.0,-99.9,30.04,SE,145,3.0,3.0,0,-99.99,,,-99.99,,2013-02-21 05:03:00,
2013-02-20 21:12:00,29.0,-99.9,30.04,WNW,290,0.0,1.0,0,-99.99,,,-99.99,,2013-02-21 05:12:00,
2013-02-20 21:22:00,29.0,-99.9,30.04,WNW,290,0.0,1.0,0,-99.99,,,-99.99,,2013-02-21 05:22:00,
2013-02-20 21:37:00,29.0,-99.9,30.05,SW,230,0.0,2.0,0,-99.99,,,-99.99,,2013-02-21 05:37:00,
2013-02-20 21:47:00,29.0,-99.9,30.05,SW,230,0.0,2.0,0,-99.99,,,-99.99,,2013-02-21 05:47:00,
2013-02-20 22:01:00,29.0,-99.9,30.05,SW,230,0.0,0.0,0,-99.99,,,-99.99,,2013-02-21 06:01:00,
2013-02-20 22:02:00,29.0,-99.9,30.05,SW,230,0.0,0.0,0,-99.99,,,-99.99,,2013-02-21 06:02:00,
2013-02-20 22:11:00,29.0,-99.9,30.05,SW,230,0.0,0.0,0,-99.99,,,-99.99,,2013-02-21 06:11:00,
2013-02-20 22:21:00,28.0,-99.9,30.05,SE,145,0.0,2.0,0,-99.99,,,-99.99,,2013-02-21 06:21:00,
2013-02-20 22:31:00,28.0,-99.9,30.05,ESE,120,0.0,2.0,0,-99.99,,,-99.99,,2013-02-21 06:31:00,
2013-02-20 22:42:00,28.0,-99.9,30.05,ESE,120,0.0,2.0,0,-99.99,,,-99.99,,2013-02-21 06:42:00,
2013-02-20 22:52:00,28.0,-99.9,30.05,SE,130,0.0,0.0,0,-99.99,,,-99.99,,2013-02-21 06:52:00,
2013-02-20 23:01:00,28.0,-99.9,30.05,SE,130,0.0,0.0,0,-99.99,,,-99.99,,2013-02-21 07:01:00,
2013-02-20 23:11:00,27.0,-99.9,30.05,SE,130,0.0,0.0,0,-99.99,,,-99.99,,2013-02-21 07:11:00,
2013-02-20 23:22:00,27.0,-99.9,30.05,SE,130,0.0,0.0,0,-99.99,,,-99.99,,2013-02-21 07:22:00,
2013-02-20 23:32:00,27.0,-99.9,30.05,SSE,150,1.0,3.0,0,-99.99,,,-99.99,,2013-02-21 07:32:00,
2013-02-20 23:42:00,27.0,-99.9,30.05,SSE,150,1.0,3.0,0,-99.99,,,-99.99,,2013-02-21 07:42:00,
2013-02-20 23:52:00,27.0,-99.9,30.04,SE,135,3.0,6.0,0,-99.99,,,-99.99,,2013-02-21 07:52:00,